This is the latest recevied weather packets stored in our database for station/object EA5AER-5. If no packets are shown the sender has not sent any weather packets the latest 10 day(s).
| Time | Temp. | Humidity | Pressure | Rain* | Wind** | Luminosity | Snow |
|---|---|---|---|---|---|---|---|
| 1777607685 | 18.89° C | 84% | 1016.6 hPa | 0 mm | - | 0 W/m² | - |
| 1777606573 | 18.89° C | 84% | 1016.6 hPa | 0 mm | - | 0 W/m² | - |
| 1777605433 | 18.89° C | 84% | 1016.6 hPa | 0 mm | - | 0 W/m² | - |
| 1777604236 | 18.89° C | 82% | 1016.3 hPa | 0 mm | - | 0 W/m² | - |
| 1777603065 | 18.89° C | 82% | 1016.3 hPa | 0 mm | - | 0 W/m² | - |
| 1777601876 | 18.89° C | 81% | 1016.2 hPa | 0 mm | - | 0 W/m² | - |
| 1777600652 | 19.44° C | 79% | 1017 hPa | 0 mm | - | 0 W/m² | - |
| 1777599340 | 19.44° C | 79% | 1017 hPa | 0 mm | - | 0 W/m² | - |
| 1777598185 | 18.89° C | 82% | 1017 hPa | 0 mm | - | 0 W/m² | - |
| 1777597020 | 18.89° C | 83% | 1016.8 hPa | 0 mm | - | 0 W/m² | - |
| 1777595850 | 18.89° C | 83% | 1016.8 hPa | 0 mm | - | 0 W/m² | - |
| 1777594638 | 18.89° C | 83% | 1016.7 hPa | 0 mm | - | 0 W/m² | - |
| 1777593385 | 19.44° C | 82% | 1016.5 hPa | 0 mm | - | 0 W/m² | - |
| 1777592149 | 19.44° C | 82% | 1016.5 hPa | 0 mm | - | 0 W/m² | - |
| 1777590915 | 19.44° C | 81% | 1016.3 hPa | 0 mm | - | 0 W/m² | - |
| 1777589750 | 18.89° C | 83% | 1015.7 hPa | 0 mm | - | 0 W/m² | - |
| 1777588530 | 18.89° C | 83% | 1015.7 hPa | 0 mm | - | 0 W/m² | - |
| 1777587405 | 18.89° C | 83% | 1015.7 hPa | 0 mm | - | 0 W/m² | - |
| 1777586162 | 18.89° C | 84% | 1015.7 hPa | 0 mm | - | 0 W/m² | - |
| 1777584961 | 18.89° C | 84% | 1015.6 hPa | 0 mm | - | 0 W/m² | - |
| 1777583804 | 18.89° C | 83% | 1014.9 hPa | 0 mm | - | 0 W/m² | - |
| 1777582587 | 18.89° C | 83% | 1014.9 hPa | 0 mm | - | 0 W/m² | - |
| 1777581305 | 18.89° C | 83% | 1014.9 hPa | 0 mm | - | 0 W/m² | - |
| 1777580084 | 18.89° C | 82% | 1014.3 hPa | 0 mm | - | 0 W/m² | - |
| 1777578990 | 18.89° C | 82% | 1014.3 hPa | 0 mm | - | 0 W/m² | - |
* Rain latest hour (hover to see other rain measurements)
** Current wind speed in m/s (hover to see current wind gust speed)